TimeEDT,TemperatureF,Dew PointF,Humidity,Sea Level PressureIn,VisibilityMPH,Wind Direction,Wind SpeedMPH,Gust SpeedMPH,PrecipitationIn,Events,Conditions,WindDirDegrees,DateUTC
12:00 AM,57.2,48.2,72,29.83,15.0,WSW,4.6,-,N/A,,Mostly Cloudy,240,2012-10-06 04:00:00
1:00 AM,57.2,48.2,72,-9999,15.0,West,2.3,-,N/A,,Mostly Cloudy,260,2012-10-06 05:00:00
2:00 AM,53.6,48.2,82,29.81,15.0,SSW,2.3,-,N/A,,Mostly Cloudy,200,2012-10-06 06:00:00
3:00 AM,55.4,48.2,77,29.79,15.0,SW,2.3,-,N/A,,Mostly Cloudy,230,2012-10-06 07:00:00
3:35 AM,53.6,48.2,82,29.79,15.0,West,3.5,-,N/A,Rain,Light Rain Showers,280,2012-10-06 07:35:00
4:00 AM,51.8,48.2,88,29.79,15.0,West,4.6,-,N/A,Rain,Light Rain Showers,280,2012-10-06 08:00:00
5:00 AM,50.0,46.4,87,29.79,10.0,West,4.6,-,N/A,Rain,Light Rain Showers,270,2012-10-06 09:00:00
6:00 AM,48.2,46.4,93,29.77,10.0,West,3.5,-,N/A,Rain,Light Rain,260,2012-10-06 10:00:00
7:00 AM,46.4,44.6,93,29.76,8.0,West,2.3,-,N/A,Rain,Light Rain,280,2012-10-06 11:00:00
8:00 AM,46.4,46.4,100,29.77,5.0,WSW,3.5,-,N/A,Rain,Light Rain,240,2012-10-06 12:00:00
9:00 AM,46.4,46.4,100,29.77,5.0,WSW,3.5,-,N/A,Rain,Light Rain,240,2012-10-06 13:00:00
10:00 AM,48.2,46.4,93,29.75,6.0,West,3.5,-,N/A,Rain,Light Rain,260,2012-10-06 14:00:00
10:42 AM,48.2,46.4,93,29.77,15.0,WSW,4.6,-,N/A,,Overcast,240,2012-10-06 14:42:00
11:00 AM,48.2,46.4,93,29.76,20.0,WSW,5.8,-,N/A,,Mostly Cloudy,250,2012-10-06 15:00:00
11:05 AM,48.2,46.4,93,29.76,20.0,WSW,3.5,-,N/A,Rain,Light Rain,240,2012-10-06 15:05:00
11:49 AM,48.2,46.4,93,29.77,20.0,SW,9.2,-,N/A,,Overcast,220,2012-10-06 15:49:00
12:00 PM,50.0,46.4,87,29.77,20.0,SW,6.9,-,N/A,,Overcast,230,2012-10-06 16:00:00
12:18 PM,51.8,48.2,88,29.77,20.0,SW,6.9,-,N/A,,Mostly Cloudy,230,2012-10-06 16:18:00
1:00 PM,51.8,46.4,82,29.76,25.0,SW,5.8,-,N/A,,Overcast,230,2012-10-06 17:00:00
2:00 PM,51.8,46.4,82,29.75,40.0,SW,9.2,-,N/A,,Mostly Cloudy,220,2012-10-06 18:00:00
3:00 PM,53.6,48.2,82,29.75,45.0,WSW,4.6,-,N/A,,Mostly Cloudy,240,2012-10-06 19:00:00
4:00 PM,55.4,48.2,77,29.73,45.0,SW,6.9,-,N/A,Rain,Light Rain Showers,220,2012-10-06 20:00:00
4:40 PM,51.8,48.2,88,29.75,45.0,West,3.5,-,N/A,,Mostly Cloudy,260,2012-10-06 20:40:00
5:00 PM,53.6,48.2,82,29.75,45.0,West,4.6,-,N/A,,Scattered Clouds,260,2012-10-06 21:00:00
5:43 PM,51.8,44.6,76,29.76,45.0,West,6.9,-,N/A,Rain,Light Rain Showers,280,2012-10-06 21:43:00
6:00 PM,50.0,42.8,76,29.78,45.0,West,9.2,21.9,N/A,Rain,Light Rain Showers,270,2012-10-06 22:00:00
6:18 PM,48.2,44.6,87,29.79,45.0,WSW,11.5,20.7,N/A,,Mostly Cloudy,250,2012-10-06 22:18:00
7:00 PM,46.4,42.8,87,29.80,25.0,WSW,2.3,-,N/A,,Mostly Cloudy,240,2012-10-06 23:00:00
8:00 PM,46.4,42.8,87,29.82,25.0,WSW,4.6,-,N/A,,Mostly Cloudy,240,2012-10-07 00:00:00
9:00 PM,44.6,41.0,87,29.83,25.0,SW,5.8,-,N/A,,Mostly Cloudy,230,2012-10-07 01:00:00
10:00 PM,44.6,41.0,87,29.86,25.0,West,3.5,-,N/A,,Partly Cloudy,260,2012-10-07 02:00:00
11:00 PM,44.6,41.0,87,29.88,25.0,WSW,5.8,-,N/A,,Partly Cloudy,250,2012-10-07 03:00:00